This demonstration page uses our WeatherBlox Daily Observations layout. Learn more.

Hourly Observations for December 26, 2019

Temp ( °F °C ) Dew Point ( °F °C ) Humidity (%) Winds ( mph kmh ) Pressure ( in mb ) Visibility ( mi km ) Precip ( " mm )
12:15 am 00:15 Cloudy 28 -2.1 28 -2.5 97 97 N 9 15 29.96 1015 10 16.0934 0 0
12:35 am 00:35 Cloudy 28 -2.1 28 -2.5 97 97 N 8 13 29.98 1015 10 16.0934 0 0
12:55 am 00:55 Cloudy 28 -2.1 28 -2.3 99 99 N 8 13 29.98 1015 10 16.0934 0 0
1:15 am 01:15 Cloudy 28 -2.2 28 -2.5 98 98 NNW 10 17 29.99 1015 10 16.0934 0 0
1:35 am 01:35 Cloudy 28 -2.1 28 -2.5 97 97 NNW 12 19 30.01 1016 10 16.0934 0 0
1:55 am 01:55 Cloudy 28 -2.2 27 -2.7 96 96 N 10 17 30.02 1016 10 16.0934 0 0
2:15 am 02:15 Cloudy 28 -2.2 27 -2.7 96 96 N 10 17 30.01 1016 10 16.0934 0 0
2:35 am 02:35 Cloudy 28 -2.2 27 -2.7 96 96 N 8 13 30.02 1016 10 16.0934 0 0
2:55 am 02:55 Cloudy 28 -2.3 27 -3 95 95 N 7 11 30.04 1017 10 16.0934 0 0
3:15 am 03:15 Cloudy 28 -2.2 26 -3.1 94 94 NNW 7 11 30.05 1017 10 16.0934 0 0
3:35 am 03:35 Cloudy 28 -2.1 27 -3 94 94 N 6 9 30.04 1017 10 16.0934 0 0
3:55 am 03:55 Cloudy 28 -2.1 27 -3 94 94 N 8 13 30.04 1017 10 16.0934 0 0
4:15 am 04:15 Cloudy 28 -2.2 26 -3.1 94 94 N 6 9 30.05 1017 10 16.0934 0 0
4:35 am 04:35 Cloudy 28 -2.1 27 -3 94 94 NNE 9 15 30.05 1018 10 16.0934 0 0
4:55 am 04:55 Cloudy 28 -2.3 26 -3.2 94 94 NNW 7 11 30.07 1018 10 16.0934 0 0
5:15 am 05:15 Cloudy 28 -2.2 26 -3.1 94 94 N 7 11 30.07 1018 10 16.0934 0 0
5:35 am 05:35 Cloudy 28 -2.2 27 -3 94 94 N 10 17 30.07 1018 10 16.0934 0 0
5:55 am 05:55 Cloudy 28 -2.1 27 -3 94 94 N 6 9 30.07 1018 10 16.0934 0 0
6:15 am 06:15 Cloudy 28 -2.1 27 -3 94 94 NNW 8 13 30.1 1019 10 16.0934 0 0
6:35 am 06:35 Cloudy 28 -2 27 -2.7 95 95 NNW 8 13 30.11 1020 10 16.0934 0 0
6:55 am 06:55 Cloudy 29 -1.8 27 -2.6 94 94 N 6 9 30.11 1020 10 16.0934 0 0
7:15 am 07:15 Cloudy 29 -1.8 27 -2.7 94 94 N 6 9 30.11 1020 10 16.0934 0 0
7:35 am 07:35 Mostly Cloudy 27 -2.6 26 -3.4 94 94 NNW 5 7 30.12 1020 10 16.0934 0 0
7:55 am 07:55 Partly Cloudy 26 -3.5 25 -4.1 96 96 NW 3 6 30.15 1021 10 16.0934 0 0
8:15 am 08:15 Sunny 25 -4 24 -4.3 98 98 NW 5 7 30.15 1021 10 16.0934 0 0
8:35 am 08:35 Sunny 25 -3.9 24 -4.2 98 98 NW 3 6 30.16 1021 10 16.0934 0 0
8:55 am 08:55 Sunny 26 -3.1 26 -3.5 97 97 Calm 30.17 1022 10 16.0934 0 0
9:15 am 09:15 Partly Cloudy 28 -2.1 27 -3 94 94 N 3 6 30.17 1022 10 16.0934 0 0
9:35 am 09:35 Partly Cloudy 29 -1.5 26 -3.1 89 89 N 7 11 30.16 1021 10 16.0934 0 0
9:55 am 09:55 Sunny 30 -1 26 -3.2 85 85 N 6 9 30.16 1021 10 16.0934 0 0
10:15 am 10:15 Sunny 31 -0.7 26 -3.4 82 82 N 6 9 30.18 1022 10 16.0934 0 0
10:35 am 10:35 Sunny 31 -0.3 26 -3.2 81 81 N 6 9 30.17 1022 10 16.0934 0 0
10:55 am 10:55 Sunny 32 0 26 -3.1 80 80 NNW 7 11 30.18 1022 10 16.0934 0 0
11:15 am 11:15 Partly Cloudy 32 0.2 26 -3.1 79 79 N 10 17 30.17 1022 10 16.0934 0 0
11:35 am 11:35 Partly Cloudy 33 0.7 27 -2.9 77 77 NNW 9 15 30.17 1022 10 16.0934 0 0
11:55 am 11:55 Partly Cloudy 34 1.1 28 -2.5 77 77 N 3 6 30.16 1021 10 16.0934 0 0
12:15 pm 12:15 Sunny 34 1.3 28 -2.4 77 77 Calm 30.15 1021 10 16.0934 0 0
12:35 pm 12:35 Partly Cloudy 35 1.7 28 -2.4 75 75 NW 6 9 30.15 1021 10 16.0934 0 0
12:55 pm 12:55 Sunny 36 2.1 28 -2.2 73 73 Calm 30.15 1021 10 16.0934 0 0
1:15 pm 13:15 Sunny 37 2.8 28 -2 71 71 NNW 5 7 30.14 1021 10 16.0934 0 0
1:35 pm 13:35 Sunny 37 3 29 -1.8 71 71 Calm 30.14 1021 10 16.0934 0 0
1:55 pm 13:55 Sunny 38 3.5 29 -1.6 70 70 WNW 5 7 30.13 1020 10 16.0934 0 0
2:15 pm 14:15 Sunny 39 3.7 29 -1.4 70 70 NW 5 7 30.13 1020 10 16.0934 0 0
2:35 pm 14:35 Sunny 40 4.2 30 -1.1 69 69 WNW 5 7 30.13 1020 10 16.0934 0 0
2:55 pm 14:55 Sunny 40 4.5 30 -1.1 67 67 N 5 7 30.12 1020 10 16.0934 0 0
3:15 pm 15:15 Sunny 41 4.9 30 -1.1 65 65 N 6 9 30.12 1020 10 16.0934 0 0
3:35 pm 15:35 Sunny 41 4.8 30 -1.1 66 66 N 3 6 30.12 1020 10 16.0934 0 0
3:55 pm 15:55 Sunny 40 4.6 30 -1.1 67 67 N 6 9 30.13 1020 10 16.0934 0 0
4:15 pm 16:15 Sunny 40 4.5 30 -1.2 67 67 N 5 7 30.14 1021 10 16.0934 0 0
4:35 pm 16:35 Sunny 39 4 29 -1.4 68 68 Calm 30.15 1021 10 16.0934 0 0
4:55 pm 16:55 Sunny 37 2.7 28 -2.1 71 71 NNE 7 11 30.17 1022 10 16.0934 0 0
5:15 pm 17:15 Sunny 32 0 27 -3 80 80 NNE 6 9 30.22 1023 10 16.0934 0 0
5:35 pm 17:35 Clear 30 -1.1 26 -3.5 84 84 NE 6 9 30.23 1024 10 16.0934 0 0
5:55 pm 17:55 Clear 28 -2.2 25 -4.1 87 87 NE 6 9 30.25 1024 10 16.0934 0 0
6:15 pm 18:15 Clear 29 -1.9 26 -3.5 89 89 NNE 5 7 30.25 1025 10 16.0934 0 0
6:35 pm 18:35 Clear 29 -1.8 26 -3.4 89 89 NNE 3 6 30.26 1025 10 16.0934 0 0
6:55 pm 18:55 Clear 27 -2.7 24 -4.2 90 90 Calm 30.28 1025 10 16.0934 0 0
7:15 pm 19:15 Clear 28 -2.4 26 -3.5 92 92 Calm 30.29 1026 10 16.0934 0 0
7:35 pm 19:35 Clear 26 -3.5 24 -4.5 93 93 Calm 30.29 1026 10 16.0934 0 0
7:55 pm 19:55 Clear 27 -2.7 26 -3.5 94 94 Calm 30.29 1026 10 16.0934 0 0
8:15 pm 20:15 Clear 26 -3.5 25 -4 96 96 Calm 30.3 1026 10 16.0934 0 0
8:35 pm 20:35 Clear 26 -3.2 26 -3.6 97 97 Calm 30.3 1026 10 16.0934 0 0
8:55 pm 20:55 Clear 26 -3.4 25 -3.8 97 97 Calm 30.3 1026 10 16.0934 0 0
9:15 pm 21:15 Clear with Mist and Fog 25 -4.1 24 -4.3 99 99 Calm 30.31 1026 3 4.82802 0 0
9:35 pm 21:35 Clear 24 -4.6 23 -4.8 99 99 Calm 30.32 1027 10 16.0934 0 0
9:55 pm 21:55 Clear 23 -5 23 -5.2 99 99 Calm 30.32 1027 10 16.0934 0 0
10:15 pm 22:15 Clear 22 -5.7 21 -6 98 98 Calm 30.33 1027 10 16.0934 0 0
10:35 pm 22:35 Clear 20 -6.5 19 -7 96 96 Calm 30.34 1027 10 16.0934 0 0
10:55 pm 22:55 Clear 22 -5.7 21 -6 98 98 Calm 30.33 1027 7 11.26538 0 0
11:15 pm 23:15 Clear 22 -5.4 22 -5.8 97 97 Calm 30.33 1027 10 16.0934 0 0
11:35 pm 23:35 Clear 21 -6.2 20 -6.8 96 96 Calm 30.34 1027 10 16.0934 0 0
11:55 pm 23:55 Clear 21 -6.1 20 -6.4 98 98 Calm 30.34 1027 10 16.0934 0 0

Powered by AerisWeather